Pompano Beach, FL

12:44 PM EDT on August 25, 2016 (GMT -0400)
Pompano Beach

Weather History for KPMP - September, 2014

Change the Weather History Date:

Friday, September 19, 2014

  Actual Average Record
Temperature  
Mean Temperature 82 °F -  
Max Temperature 88 °F 90 °F 95 °F (1987)
Min Temperature 77 °F 74 °F 68 °F (1954)
Cooling Degree Days 17    
Growing Degree Days 32 (Base 50)    
Moisture  
Dew Point 75 °F    
Average Humidity 84    
Maximum Humidity 94    
Minimum Humidity 61    
Precipitation  
Precipitation 0.24 in - - ()
Sea Level Pressure  
Sea Level Pressure 29.94 in    
Wind  
Wind Speed 3 mph (South)    
Max Wind Speed 16 mph    
Max Gust Speed 22 mph    
Visibility 9 miles    
Events Rain , Thunderstorm    
Averages and records for this station are not official NWS values.
T = Trace of Precipitation, MM = Missing Value Source: NWS Daily Summary

Daily Weather History Graph

Daily Weather History Graph

Search for Another Location

Airport or City:

Trip Planner

Search our weather history database for the weather conditions in past years. The results will help you decide how hot, cold, wet, or windy it might be!

Date:

Astronomy

Sep. 19, 2014 Rise Set
Actual Time 7:07 AM EDT 7:20 PM EDT
Civil Twilight 6:44 AM EDT 7:43 PM EDT
Nautical Twilight 6:17 AM EDT 8:10 PM EDT
Astronomical Twilight 5:50 AM EDT 8:37 PM EDT
Moon 3:10 AM EDT (9/19) 4:30 PM EDT (9/19)
Length of Visible Light 12h 58m
Length of Day
12h 12m
Waning Crescent, 18% of the Moon is Illuminated
Sep 19
Waning Crescent
Sep 24
New
Oct 1
First Quarter
Oct 8
Full
Oct 15
Last Quarter

Hourly Weather History & Observations

Time (EDT) Temp. Heat Index Dew Point Humidity Pressure Visibility Wind Dir Wind Speed Gust Speed Precip Events Conditions
12:53 AM 78.1 °F - 73.9 °F 87% 29.94 in 10.0 mi Calm Calm - N/A   Clear
1:53 AM 78.1 °F - 73.9 °F 87% 29.92 in 10.0 mi Calm Calm - N/A   Clear
2:53 AM 78.1 °F - 73.9 °F 87% 29.90 in 10.0 mi SSE 3.5 mph - N/A   Clear
3:53 AM 77.0 °F - 73.9 °F 90% 29.90 in 10.0 mi Calm Calm - N/A   Clear
4:53 AM 77.0 °F - 73.9 °F 90% 29.91 in 9.0 mi Calm Calm - N/A   Clear
5:53 AM 77.0 °F - 75.0 °F 94% 29.91 in 10.0 mi Calm Calm - N/A   Clear
6:53 AM 77.0 °F - 73.9 °F 90% 29.94 in 10.0 mi Calm Calm - N/A   Clear
7:53 AM 77.0 °F - 73.9 °F 90% 29.94 in 9.0 mi Calm Calm - N/A   Clear
8:53 AM 82.0 °F 88.6 °F 75.0 °F 79% 29.97 in 10.0 mi SW 3.5 mph - N/A   Scattered Clouds
9:53 AM 84.0 °F 90.2 °F 73.0 °F 69% 29.96 in 10.0 mi South 5.8 mph - N/A   Mostly Cloudy
10:53 AM 87.1 °F 93.6 °F 72.0 °F 61% 29.96 in 10.0 mi South 6.9 mph - N/A   Mostly Cloudy
11:50 AM 87.8 °F 95.6 °F 73.4 °F 62% 29.95 in 10.0 mi ESE 11.5 mph - N/A Thunderstorm Mostly Cloudy
11:53 AM 87.1 °F 95.4 °F 73.9 °F 65% 29.96 in 10.0 mi SE 10.4 mph - N/A Thunderstorm Mostly Cloudy
12:42 PM 84.9 °F 92.1 °F 73.9 °F 69% 29.95 in 8.0 mi SSE 10.4 mph - 0.00 in Rain , Thunderstorm Light Rain
12:53 PM 82.9 °F 88.8 °F 73.0 °F 72% 29.96 in 8.0 mi South 16.1 mph 21.9 mph 0.00 in Thunderstorm Thunderstorm
1:09 PM 79.0 °F - 73.0 °F 82% 29.96 in 2.0 mi WSW 11.5 mph - 0.05 in Rain , Thunderstorm Light Thunderstorms and Rain
1:16 PM 78.1 °F - 73.9 °F 87% 29.96 in 3.0 mi West 8.1 mph - 0.12 in Rain , Thunderstorm Heavy Thunderstorms and Rain
1:53 PM 79.0 °F - 75.9 °F 90% 29.95 in 10.0 mi WSW 3.5 mph - 0.13 in Thunderstorm Mostly Cloudy
2:09 PM 79.0 °F - 77.0 °F 94% 29.95 in 10.0 mi South 3.5 mph - 0.01 in Rain Light Rain
2:48 PM 80.6 °F 87.1 °F 77.0 °F 89% 29.94 in 10.0 mi South 8.1 mph - 0.02 in Rain Light Rain
2:53 PM 79.0 °F - 75.9 °F 90% 29.94 in 10.0 mi South 6.9 mph - 0.02 in   Scattered Clouds
3:53 PM 80.1 °F 83.8 °F 72.0 °F 76% 29.93 in 10.0 mi South 3.5 mph - 0.00 in Rain Light Rain
4:53 PM 79.0 °F - 75.9 °F 90% 29.91 in 5.0 mi SSW 4.6 mph - 0.07 in Rain Light Rain
5:53 PM 80.1 °F 86.4 °F 78.1 °F 94% 29.91 in 10.0 mi ESE 4.6 mph - 0.01 in Rain Light Rain
6:53 PM 79.0 °F - 77.0 °F 94% 29.93 in 10.0 mi Calm Calm - 0.00 in   Clear
7:53 PM 79.0 °F - 77.0 °F 94% 29.94 in 10.0 mi Calm Calm - 0.01 in Rain Light Rain
8:53 PM 79.0 °F - 75.9 °F 90% 29.94 in 10.0 mi Calm Calm - 0.00 in   Clear
10:53 PM 79.0 °F - 75.9 °F 90% 29.97 in 10.0 mi Calm Calm - N/A   Clear
11:53 PM 79.0 °F - 75.0 °F 88% 29.98 in 10.0 mi Calm Calm - N/A   Clear